Location: Karlsruhe
(49.0131°N, 8.3874°E)
Time: 15:24:01
(UTC+02:00)

ISS - Pass Details

Date: 18 May 2021
Orbit: 419 x 422 km, 51.6° (Epoch: 25 June)

Event Time Altitude Azimuth Distance (km) Brightness Sun altitude
Rises 22:43:49 0° 255° (WSW) 2,366 0.4 -12.7°
Reaches altitude 10° 22:45:54 10° 257° (WSW) 1,504 -0.6 -12.9°
Maximum altitude 22:49:17 75° 344° (NNW) 441 -3.6 -13.2°
Drops below altitude 10° 22:52:40 10° 70° (ENE) 1,509 -1.1 -13.6°
Enters shadow 22:55:43 -3° 73° (ENE) 2,762 0.2 -13.8°
